TimeCST,TemperatureF,Dew PointF,Humidity,Sea Level PressureIn,VisibilityMPH,Wind Direction,Wind SpeedMPH,Gust SpeedMPH,PrecipitationIn,Events,Conditions,WindDirDegrees,DateUTC
12:13 AM,3.2,-0.4,85,29.79,10.0,WNW,13.8,20.7,N/A,,Overcast,300,2013-01-31 06:13:00
12:32 AM,3.2,-0.4,85,29.79,10.0,WNW,16.1,21.9,N/A,,Overcast,290,2013-01-31 06:32:00
12:53 AM,3.2,-0.4,85,29.80,10.0,WNW,15.0,20.7,N/A,,Overcast,290,2013-01-31 06:53:00
1:13 AM,3.2,-2.2,78,29.80,10.0,WNW,13.8,24.2,N/A,,Overcast,300,2013-01-31 07:13:00
1:32 AM,1.4,-2.2,85,29.81,10.0,WNW,16.1,23.0,N/A,,Overcast,300,2013-01-31 07:32:00
1:53 AM,1.4,-2.2,85,29.81,10.0,WNW,13.8,27.6,N/A,,Overcast,300,2013-01-31 07:53:00
2:13 AM,1.4,-4.0,78,29.82,10.0,WNW,13.8,24.2,N/A,,Overcast,300,2013-01-31 08:13:00
2:32 AM,1.4,-4.0,78,29.83,10.0,WNW,16.1,23.0,N/A,,Overcast,300,2013-01-31 08:32:00
2:53 AM,1.4,-4.0,78,29.83,10.0,WNW,16.1,21.9,N/A,,Overcast,300,2013-01-31 08:53:00
3:13 AM,1.4,-4.0,78,29.83,7.0,WNW,16.1,20.7,N/A,,Overcast,300,2013-01-31 09:13:00
3:32 AM,-0.4,-5.8,78,29.83,7.0,WNW,15.0,-,N/A,,Overcast,300,2013-01-31 09:32:00
3:53 AM,-0.4,-5.8,78,29.84,7.0,WNW,17.3,24.2,N/A,,Overcast,300,2013-01-31 09:53:00
4:13 AM,-0.4,-5.8,78,29.85,5.0,WNW,15.0,23.0,N/A,,Haze,300,2013-01-31 10:13:00
4:32 AM,-0.4,-5.8,78,29.85,5.0,WNW,16.1,23.0,N/A,,Haze,300,2013-01-31 10:32:00
4:53 AM,-0.4,-5.8,78,29.86,5.0,WNW,18.4,24.2,N/A,,Haze,290,2013-01-31 10:53:00
5:13 AM,-0.4,-5.8,78,29.87,7.0,NW,18.4,25.3,N/A,,Overcast,310,2013-01-31 11:13:00
5:33 AM,-0.4,-5.8,78,29.88,3.0,WNW,18.4,24.2,N/A,,Haze,290,2013-01-31 11:33:00
5:53 AM,-2.2,-7.6,78,29.88,4.0,WNW,18.4,26.5,N/A,,Haze,300,2013-01-31 11:53:00
6:13 AM,-2.2,-7.6,78,29.90,5.0,WNW,13.8,23.0,N/A,,Haze,300,2013-01-31 12:13:00
6:32 AM,-2.2,-7.6,78,29.90,10.0,WNW,16.1,24.2,N/A,,Overcast,300,2013-01-31 12:32:00
6:53 AM,-4.0,-9.4,78,29.92,7.0,WNW,18.4,26.5,N/A,,Overcast,300,2013-01-31 12:53:00
7:13 AM,-5.8,-9.4,84,29.93,5.0,NW,15.0,26.5,N/A,,Haze,310,2013-01-31 13:13:00
7:32 AM,-5.8,-11.2,77,29.94,5.0,NW,21.9,28.8,N/A,,Haze,310,2013-01-31 13:32:00
7:53 AM,-5.8,-11.2,77,29.95,4.0,WNW,16.1,25.3,N/A,,Haze,300,2013-01-31 13:53:00
8:13 AM,-5.8,-11.2,77,29.96,4.0,WNW,17.3,26.5,N/A,,Haze,300,2013-01-31 14:13:00
8:32 AM,-5.8,-11.2,77,29.97,4.0,WNW,16.1,25.3,N/A,,Haze,300,2013-01-31 14:32:00
8:53 AM,-5.8,-11.2,77,29.98,4.0,WNW,19.6,26.5,N/A,,Haze,300,2013-01-31 14:53:00
9:18 AM,-5.8,-11.2,77,30.00,7.0,WNW,18.4,25.3,N/A,,Mostly Cloudy,300,2013-01-31 15:18:00
9:33 AM,-5.8,-11.2,77,30.01,5.0,WNW,17.3,26.5,N/A,,Haze,290,2013-01-31 15:33:00
9:53 AM,-5.8,-11.2,77,30.02,4.0,WNW,17.3,25.3,N/A,,Haze,300,2013-01-31 15:53:00
10:13 AM,-4.0,-11.2,71,30.03,5.0,NW,16.1,27.6,N/A,,Haze,310,2013-01-31 16:13:00
10:33 AM,-4.0,-11.2,71,30.04,4.0,NW,19.6,27.6,N/A,,Haze,310,2013-01-31 16:33:00
10:53 AM,-4.0,-11.2,71,30.05,7.0,NW,21.9,31.1,N/A,,Mostly Cloudy,310,2013-01-31 16:53:00
11:13 AM,-2.2,-9.4,71,30.05,5.0,WNW,16.1,29.9,N/A,,Haze,300,2013-01-31 17:13:00
11:33 AM,-2.2,-9.4,71,30.06,4.0,NW,19.6,26.5,N/A,,Haze,320,2013-01-31 17:33:00
11:53 AM,-2.2,-9.4,71,30.06,7.0,NW,18.4,31.1,N/A,,Clear,310,2013-01-31 17:53:00
12:13 PM,-0.4,-9.4,66,30.07,7.0,NW,21.9,27.6,N/A,,Clear,310,2013-01-31 18:13:00
12:33 PM,-0.4,-9.4,66,30.07,5.0,NW,19.6,27.6,N/A,,Haze,310,2013-01-31 18:33:00
12:53 PM,-0.4,-9.4,66,30.08,10.0,NW,19.6,24.2,N/A,,Clear,310,2013-01-31 18:53:00
1:13 PM,-0.4,-9.4,66,30.09,10.0,WNW,17.3,25.3,N/A,,Clear,300,2013-01-31 19:13:00
1:33 PM,-0.4,-9.4,66,30.09,10.0,WNW,21.9,25.3,N/A,,Clear,300,2013-01-31 19:33:00
1:53 PM,-0.4,-9.4,66,30.10,10.0,WNW,18.4,25.3,N/A,,Clear,290,2013-01-31 19:53:00
2:13 PM,-0.4,-9.4,66,30.10,10.0,NW,15.0,25.3,N/A,,Clear,310,2013-01-31 20:13:00
2:33 PM,-0.4,-9.4,66,30.11,10.0,NW,19.6,28.8,N/A,,Clear,310,2013-01-31 20:33:00
2:53 PM,-0.4,-9.4,66,30.12,10.0,NW,18.4,27.6,N/A,,Clear,310,2013-01-31 20:53:00
3:13 PM,-2.2,-11.2,66,30.14,10.0,WNW,16.1,26.5,N/A,,Clear,300,2013-01-31 21:13:00
3:33 PM,-2.2,-11.2,66,30.14,10.0,WNW,20.7,31.1,N/A,,Clear,300,2013-01-31 21:33:00
3:53 PM,-2.2,-11.2,66,30.15,10.0,NW,21.9,31.1,N/A,,Clear,310,2013-01-31 21:53:00
4:13 PM,-2.2,-11.2,66,30.16,10.0,NW,18.4,32.2,N/A,,Clear,310,2013-01-31 22:13:00
4:33 PM,-2.2,-11.2,66,30.17,10.0,NW,18.4,25.3,N/A,,Clear,310,2013-01-31 22:33:00
4:53 PM,-5.8,-13.0,71,30.18,10.0,WNW,16.1,28.8,N/A,,Clear,300,2013-01-31 22:53:00
5:13 PM,-5.8,-13.0,71,30.19,10.0,WNW,18.4,27.6,N/A,,Clear,290,2013-01-31 23:13:00
5:33 PM,-5.8,-13.0,71,30.19,10.0,WNW,17.3,24.2,N/A,,Clear,300,2013-01-31 23:33:00
6:13 PM,-7.6,-14.8,71,30.20,10.0,WNW,18.4,24.2,N/A,,Clear,300,2013-02-01 00:13:00
6:33 PM,-7.6,-14.8,71,30.21,10.0,WNW,16.1,25.3,N/A,,Clear,300,2013-02-01 00:33:00
6:53 PM,-7.6,-14.8,71,30.21,10.0,WNW,13.8,20.7,N/A,,Clear,290,2013-02-01 00:53:00
7:13 PM,-7.6,-14.8,71,30.22,10.0,WNW,15.0,23.0,N/A,,Clear,300,2013-02-01 01:13:00
7:33 PM,-7.6,-14.8,71,30.22,10.0,WNW,13.8,21.9,N/A,,Clear,300,2013-02-01 01:33:00
8:13 PM,-7.6,-14.8,71,30.23,10.0,WNW,11.5,19.6,N/A,,Clear,290,2013-02-01 02:13:00
8:33 PM,-7.6,-14.8,71,30.24,10.0,WNW,15.0,20.7,N/A,,Clear,300,2013-02-01 02:33:00
8:53 PM,-7.6,-14.8,71,30.24,10.0,WNW,15.0,23.0,N/A,,Clear,300,2013-02-01 02:53:00
9:13 PM,-7.6,-14.8,71,30.25,10.0,WNW,12.7,18.4,N/A,,Clear,300,2013-02-01 03:13:00
9:33 PM,-7.6,-14.8,71,30.25,10.0,WNW,15.0,-,N/A,,Clear,290,2013-02-01 03:33:00
9:53 PM,-9.4,-14.8,77,30.26,10.0,WNW,12.7,18.4,N/A,,Clear,300,2013-02-01 03:53:00
10:13 PM,-9.4,-14.8,77,30.26,10.0,WNW,12.7,-,N/A,,Clear,290,2013-02-01 04:13:00
10:33 PM,-9.4,-16.6,71,30.26,10.0,WNW,11.5,-,N/A,,Clear,300,2013-02-01 04:33:00
11:13 PM,-9.4,-16.6,71,30.26,10.0,WNW,11.5,18.4,N/A,,Clear,290,2013-02-01 05:13:00
11:33 PM,-9.4,-16.6,71,30.26,10.0,WNW,11.5,17.3,N/A,,Clear,290,2013-02-01 05:33:00
11:53 PM,-9.4,-16.6,71,30.26,10.0,WNW,13.8,-,N/A,,Clear,290,2013-02-01 05:53:00